VTK609 UHWW-UIAA

Flight info

Callsign VTK609
Flight time 3h 0m
Altitude 37000
Route DOLMA2G DOLMA B356 TD B355 HAB/K0852F360 L168 IVADA A946 TORMA N992 GU G229 GIKOS T577 DIKRA DIKRA2L
Aircraft A320/M-SDE3FGHIRWY/LB1

Departure

Time 2026-05-07 09:02
Airport Vladivostok International Airport (UHWW)

Arrival

Time 2026-05-07 12:02
Airport Chita-Kadala International Airport (UIAA)
Time Latitude Longitude Altitude Speed Heading
2026-05-07 08:47 43.39994 132.16678 62 ft 0 kts 331°
2026-05-07 08:58 43.40008 132.16668 60 ft 4 kts 331°
2026-05-07 08:58 43.40033 132.16654 63 ft 6 kts 355°
2026-05-07 08:58 43.40069 132.16713 64 ft 10 kts 59°
2026-05-07 08:58 43.40098 132.16785 60 ft 8 kts 61°
2026-05-07 08:59 43.40122 132.16846 64 ft 7 kts 61°
2026-05-07 08:59 43.40142 132.16896 68 ft 5 kts 61°
2026-05-07 08:59 43.40163 132.16946 65 ft 8 kts 61°
2026-05-07 08:59 43.40201 132.17007 61 ft 8 kts 20°
2026-05-07 09:00 43.40249 132.16992 60 ft 6 kts 332°
2026-05-07 09:00 43.40291 132.16960 61 ft 8 kts 331°
2026-05-07 09:00 43.40344 132.16920 68 ft 9 kts 331°
2026-05-07 09:00 43.40383 132.16891 61 ft 10 kts 331°
2026-05-07 09:01 43.40429 132.16847 66 ft 7 kts 303°
2026-05-07 09:01 43.40424 132.16776 60 ft 10 kts 246°
2026-05-07 09:01 43.40330 132.16542 61 ft 59 kts 240°
2026-05-07 09:01 43.40021 132.15781 64 ft 120 kts 241°
2026-05-07 09:02 43.39534 132.14582 91 ft 164 kts 239°
2026-05-07 09:02 43.38987 132.13236 741 ft 159 kts 240°
2026-05-07 09:02 43.38448 132.11902 1389 ft 163 kts 237°
2026-05-07 09:02 43.37866 132.10463 1810 ft 181 kts 236°
2026-05-07 09:03 43.37213 132.08861 2099 ft 203 kts 237°
2026-05-07 09:03 43.36480 132.07063 2370 ft 227 kts 238°
2026-05-07 09:03 43.35691 132.05119 2959 ft 238 kts 239°
2026-05-07 09:03 43.34878 132.03118 3702 ft 243 kts 242°
2026-05-07 09:04 43.34366 132.00847 4135 ft 261 kts 273°
2026-05-07 09:04 43.34925 131.98479 4712 ft 267 kts 310°
2026-05-07 09:04 43.36393 131.97002 5467 ft 265 kts 346°
2026-05-07 09:04 43.38197 131.96963 6267 ft 263 kts 20°
2026-05-07 09:05 43.39701 131.98339 7014 ft 264 kts 49°
2026-05-07 09:05 43.40785 132.00389 7813 ft 267 kts 58°
2026-05-07 09:05 43.41773 132.02550 8579 ft 271 kts 58°
2026-05-07 09:05 43.42797 132.04799 9336 ft 277 kts 58°
2026-05-07 09:06 43.43815 132.07038 10046 ft 282 kts 57°
2026-05-07 09:06 43.45017 132.09309 10320 ft 305 kts 50°
2026-05-07 09:06 43.46467 132.11580 10501 ft 328 kts 47°
2026-05-07 09:06 43.48087 132.13931 10749 ft 347 kts 46°
2026-05-07 09:07 43.49791 132.16363 11266 ft 355 kts 45°
2026-05-07 09:07 43.51513 132.18843 11837 ft 362 kts 45°
2026-05-07 09:07 43.53250 132.21387 12464 ft 367 kts 45°
2026-05-07 09:07 43.54998 132.23994 13037 ft 373 kts 45°
2026-05-07 09:08 43.56763 132.26658 13651 ft 379 kts 45°
2026-05-07 09:08 43.58550 132.29372 14170 ft 385 kts 46°
2026-05-07 09:08 43.60360 132.32130 14696 ft 391 kts 46°
2026-05-07 09:08 43.62199 132.34939 15205 ft 396 kts 46°
2026-05-07 09:09 43.64058 132.37781 15713 ft 402 kts 46°
2026-05-07 09:09 43.65944 132.40664 16193 ft 407 kts 46°
2026-05-07 09:09 43.67855 132.43585 16702 ft 412 kts 47°
2026-05-07 09:09 43.69792 132.46545 17189 ft 417 kts 47°
2026-05-07 09:10 43.71747 132.49530 17659 ft 422 kts 47°
2026-05-07 09:10 43.73732 132.52559 18108 ft 428 kts 47°
2026-05-07 09:10 43.75747 132.55638 18482 ft 433 kts 47°
2026-05-07 09:10 43.77778 132.58755 18869 ft 439 kts 47°
2026-05-07 09:11 43.79831 132.61912 19248 ft 444 kts 47°
2026-05-07 09:11 43.82042 132.64917 19627 ft 448 kts 39°
2026-05-07 09:11 43.84389 132.67798 19990 ft 454 kts 39°
2026-05-07 09:11 43.86735 132.70678 20348 ft 459 kts 39°
2026-05-07 09:12 43.89163 132.73663 20729 ft 464 kts 39°
2026-05-07 09:12 43.91559 132.76614 21097 ft 469 kts 39°
2026-05-07 09:12 43.94008 132.79637 21462 ft 474 kts 39°
2026-05-07 09:12 43.96480 132.82690 21821 ft 478 kts 39°
2026-05-07 09:13 43.98974 132.85775 22170 ft 483 kts 39°
2026-05-07 09:13 44.01492 132.88892 22501 ft 487 kts 39°
2026-05-07 09:13 44.04032 132.92044 22842 ft 492 kts 39°
2026-05-07 09:13 44.06595 132.95231 23190 ft 497 kts 39°
2026-05-07 09:14 44.09183 132.98456 23513 ft 501 kts 39°
2026-05-07 09:14 44.11785 133.01700 23808 ft 504 kts 39°
2026-05-07 09:14 44.14405 133.04968 24096 ft 508 kts 39°
2026-05-07 09:14 44.17058 133.08274 24339 ft 513 kts 39°
2026-05-07 09:15 44.19732 133.11586 24612 ft 515 kts 37°
2026-05-07 09:15 44.22578 133.14627 24887 ft 517 kts 32°
2026-05-07 09:15 44.25487 133.17613 25165 ft 520 kts 32°
2026-05-07 09:15 44.28410 133.20618 25451 ft 523 kts 32°
2026-05-07 09:16 44.31342 133.23638 25738 ft 526 kts 32°
2026-05-07 09:16 44.34295 133.26685 26015 ft 529 kts 32°
2026-05-07 09:16 44.37264 133.29756 26306 ft 533 kts 32°
2026-05-07 09:16 44.40251 133.32851 26597 ft 536 kts 32°
2026-05-07 09:17 44.43252 133.35969 26846 ft 539 kts 32°
2026-05-07 09:17 44.46268 133.39105 27152 ft 541 kts 32°
2026-05-07 09:17 44.49297 133.42254 27382 ft 543 kts 32°
2026-05-07 09:17 44.52333 133.45414 27726 ft 545 kts 32°
2026-05-07 09:18 44.55389 133.48602 27955 ft 548 kts 33°
2026-05-07 09:18 44.58453 133.51800 28186 ft 550 kts 33°
2026-05-07 09:18 44.61532 133.55013 28409 ft 553 kts 33°
2026-05-07 09:18 44.64624 133.58247 28644 ft 555 kts 33°
2026-05-07 09:19 44.67734 133.61506 28916 ft 558 kts 33°
2026-05-07 09:19 44.70851 133.64776 29136 ft 560 kts 33°
2026-05-07 09:19 44.73975 133.68059 29449 ft 561 kts 33°
2026-05-07 09:19 44.77101 133.71349 29765 ft 562 kts 33°
2026-05-07 09:20 44.80231 133.74645 30052 ft 562 kts 33°
2026-05-07 09:20 44.83366 133.77956 30325 ft 562 kts 33°
2026-05-07 09:20 44.86497 133.81266 30592 ft 563 kts 33°
2026-05-07 09:20 44.89634 133.84589 30865 ft 563 kts 33°
2026-05-07 09:21 44.92723 133.87861 31133 ft 563 kts 32°
2026-05-07 09:21 44.95928 133.91164 31421 ft 562 kts 31°
2026-05-07 09:21 44.99076 133.94302 31698 ft 562 kts 30°
2026-05-07 09:21 45.02289 133.97438 31978 ft 561 kts 29°
2026-05-07 09:22 45.05520 134.00574 32262 ft 561 kts 29°
2026-05-07 09:22 45.08723 134.03704 32633 ft 560 kts 30°
2026-05-07 09:22 45.11918 134.06869 32971 ft 559 kts 30°
2026-05-07 09:22 45.15090 134.10052 33280 ft 559 kts 30°
2026-05-07 09:23 45.18253 134.13249 33597 ft 558 kts 30°
2026-05-07 09:23 45.21410 134.16446 33903 ft 557 kts 30°
2026-05-07 09:23 45.24560 134.19636 34185 ft 556 kts 30°
2026-05-07 09:23 45.27701 134.22817 34482 ft 554 kts 30°
2026-05-07 09:24 45.30834 134.25984 34739 ft 552 kts 30°
2026-05-07 09:24 45.33963 134.29143 34816 ft 552 kts 30°
2026-05-07 09:24 45.40225 134.35460 34828 ft 551 kts 30°
2026-05-07 09:25 45.46464 134.41798 34831 ft 551 kts 30°
2026-05-07 09:25 45.52699 134.48159 34829 ft 551 kts 30°
2026-05-07 09:26 45.58941 134.54523 34828 ft 551 kts 30°
2026-05-07 09:26 45.65166 134.60893 34873 ft 550 kts 30°
2026-05-07 09:27 45.71317 134.67214 34852 ft 547 kts 30°
2026-05-07 09:28 45.80562 134.76755 34830 ft 546 kts 30°
2026-05-07 09:28 45.86812 134.82886 34823 ft 538 kts 21°
2026-05-07 09:29 45.93639 134.86696 34840 ft 517 kts
2026-05-07 09:29 45.97140 134.87554 34836 ft 505 kts 355°
2026-05-07 09:29 46.00636 134.88020 34828 ft 504 kts 354°
2026-05-07 09:30 46.07615 134.88935 34866 ft 504 kts 355°
2026-05-07 09:30 46.14605 134.89861 34851 ft 503 kts 355°
2026-05-07 09:31 46.21582 134.90797 34835 ft 503 kts 355°
2026-05-07 09:31 46.28549 134.91729 34832 ft 503 kts 355°
2026-05-07 09:32 46.35510 134.92665 34832 ft 502 kts 355°
2026-05-07 09:32 46.42468 134.93608 34844 ft 502 kts 355°
2026-05-07 09:33 46.49423 134.94538 34841 ft 501 kts 355°
2026-05-07 09:33 46.56368 134.95471 34838 ft 501 kts 356°
2026-05-07 09:34 46.63312 134.96416 34833 ft 501 kts 355°
2026-05-07 09:34 46.70212 134.97359 34861 ft 501 kts 356°
2026-05-07 09:35 46.77140 134.98310 34848 ft 500 kts 356°
2026-05-07 09:35 46.84060 134.99239 34840 ft 499 kts 356°
2026-05-07 09:36 46.90974 135.00108 34835 ft 498 kts 355°
2026-05-07 09:36 46.97889 135.00941 34829 ft 498 kts 355°
2026-05-07 09:37 47.04807 135.01780 34825 ft 499 kts 355°
2026-05-07 09:37 47.11722 135.02646 34826 ft 499 kts 355°
2026-05-07 09:38 47.18631 135.03524 34825 ft 498 kts 355°
2026-05-07 09:38 47.25537 135.04398 34832 ft 498 kts 355°
2026-05-07 09:39 47.32436 135.05263 34838 ft 495 kts 356°
2026-05-07 09:39 47.39283 135.06124 34831 ft 493 kts 356°
2026-05-07 09:40 47.46076 135.06975 34818 ft 493 kts 356°
2026-05-07 09:40 47.52905 135.07836 34819 ft 492 kts 356°
2026-05-07 09:41 47.59729 135.08715 34808 ft 492 kts 356°
2026-05-07 09:41 47.66552 135.09594 34832 ft 491 kts 357°
2026-05-07 09:42 47.73353 135.10464 34837 ft 490 kts 357°
2026-05-07 09:42 47.80143 135.11328 34834 ft 490 kts 357°
2026-05-07 09:43 47.86934 135.12203 34823 ft 489 kts 357°
2026-05-07 09:43 47.93707 135.13084 34830 ft 488 kts 358°
2026-05-07 09:44 47.99313 135.13827 34820 ft 486 kts 358°
2026-05-07 09:44 48.06053 135.14703 34810 ft 486 kts 358°
2026-05-07 09:45 48.12797 135.15572 34813 ft 486 kts 358°
2026-05-07 09:45 48.19536 135.16447 34809 ft 485 kts 358°
2026-05-07 09:46 48.26265 135.17318 35165 ft 484 kts 358°
2026-05-07 09:46 48.29624 135.17754 35436 ft 483 kts 358°
2026-05-07 09:46 48.32970 135.18191 35656 ft 483 kts 358°
2026-05-07 09:46 48.36317 135.18630 35782 ft 483 kts 358°
2026-05-07 09:47 48.39665 135.19071 35801 ft 482 kts 358°
2026-05-07 09:47 48.46336 135.19956 35796 ft 481 kts 358°
2026-05-07 09:47 48.49642 135.20004 35800 ft 471 kts 347°
2026-05-07 09:48 48.52833 135.19179 35811 ft 460 kts 337°
2026-05-07 09:48 48.58510 135.15254 35807 ft 442 kts 318°
2026-05-07 09:49 48.63144 135.09306 35808 ft 436 kts 311°
2026-05-07 09:49 48.67643 135.03154 35806 ft 436 kts 311°
2026-05-07 09:50 48.72140 134.96990 35799 ft 436 kts 311°
2026-05-07 09:50 48.76609 134.90848 35816 ft 437 kts 311°
2026-05-07 09:51 48.81114 134.84650 35808 ft 437 kts 311°
2026-05-07 09:51 48.86160 134.77696 35806 ft 437 kts 311°
2026-05-07 09:52 48.90661 134.71463 35815 ft 437 kts 311°
2026-05-07 09:52 48.95150 134.65220 35818 ft 438 kts 312°
2026-05-07 09:53 48.99646 134.58965 35812 ft 438 kts 312°
2026-05-07 09:53 49.04139 134.52691 35806 ft 438 kts 312°
2026-05-07 09:54 49.08468 134.46276 35809 ft 433 kts 304°
2026-05-07 09:54 49.11860 134.38702 35818 ft 429 kts 299°
2026-05-07 09:55 49.15140 134.31076 35812 ft 430 kts 299°
2026-05-07 09:55 49.18433 134.23439 35809 ft 431 kts 299°
2026-05-07 09:56 49.21696 134.15823 35811 ft 431 kts 299°
2026-05-07 09:56 49.24972 134.08143 35835 ft 431 kts 299°
2026-05-07 09:57 49.28249 134.00444 35822 ft 432 kts 299°
2026-05-07 09:57 49.31000 133.93984 35816 ft 432 kts 299°
2026-05-07 09:58 49.34277 133.86255 35826 ft 433 kts 299°
2026-05-07 09:58 49.37529 133.78556 35830 ft 433 kts 299°
2026-05-07 09:59 49.40800 133.70787 35830 ft 433 kts 299°
2026-05-07 09:59 49.44070 133.63011 35831 ft 433 kts 299°
2026-05-07 10:00 49.47348 133.55244 35844 ft 433 kts 299°
2026-05-07 10:00 49.50623 133.47458 35846 ft 433 kts 299°
2026-05-07 10:01 49.53885 133.39666 35869 ft 433 kts 299°
2026-05-07 10:01 49.57144 133.31840 35852 ft 434 kts 299°
2026-05-07 10:02 49.60403 133.24010 35849 ft 434 kts 299°
2026-05-07 10:02 49.63658 133.16154 35848 ft 434 kts 299°
2026-05-07 10:03 49.66908 133.08296 35863 ft 434 kts 300°
2026-05-07 10:03 49.70136 133.00467 35858 ft 435 kts 300°
2026-05-07 10:04 49.73381 132.92560 35857 ft 435 kts 299°
2026-05-07 10:04 49.76626 132.84642 35864 ft 436 kts 299°
2026-05-07 10:05 49.79867 132.76710 35864 ft 436 kts 299°
2026-05-07 10:05 49.83107 132.68775 35870 ft 436 kts 300°
2026-05-07 10:06 49.86348 132.60817 35862 ft 437 kts 300°
2026-05-07 10:06 49.89575 132.52829 35860 ft 437 kts 299°
2026-05-07 10:07 49.92797 132.44810 35863 ft 438 kts 299°
2026-05-07 10:07 49.96022 132.36793 35874 ft 438 kts 300°
2026-05-07 10:08 49.99232 132.28798 35868 ft 439 kts 300°
2026-05-07 10:08 50.02459 132.20733 35865 ft 439 kts 301°
2026-05-07 10:09 50.06439 132.13489 35865 ft 443 kts 312°
2026-05-07 10:09 50.10729 132.06609 35865 ft 443 kts 311°
2026-05-07 10:10 50.15005 131.99690 35870 ft 443 kts 311°
2026-05-07 10:10 50.19273 131.92741 35866 ft 444 kts 311°
2026-05-07 10:11 50.23554 131.85785 35879 ft 444 kts 312°
2026-05-07 10:11 50.27829 131.78828 35881 ft 444 kts 311°
2026-05-07 10:12 50.32093 131.71851 35887 ft 444 kts 312°
2026-05-07 10:12 50.36353 131.64865 35892 ft 443 kts 312°
2026-05-07 10:13 50.40588 131.57910 35892 ft 443 kts 312°
2026-05-07 10:13 50.44837 131.50902 35891 ft 443 kts 312°
2026-05-07 10:14 50.49073 131.43872 35894 ft 443 kts 312°
2026-05-07 10:14 50.53311 131.36828 35893 ft 443 kts 312°
2026-05-07 10:15 50.57550 131.29794 35895 ft 443 kts 312°
2026-05-07 10:15 50.61784 131.22734 35902 ft 443 kts 312°
2026-05-07 10:16 50.66012 131.15659 35904 ft 443 kts 312°
2026-05-07 10:16 50.70231 131.08584 35903 ft 443 kts 312°
2026-05-07 10:17 50.74442 131.01499 35905 ft 442 kts 312°
2026-05-07 10:17 50.78647 130.94400 35909 ft 442 kts 312°
2026-05-07 10:18 50.82851 130.87283 35911 ft 442 kts 312°
2026-05-07 10:18 50.87047 130.80152 35904 ft 443 kts 312°
2026-05-07 10:19 50.91220 130.73049 35903 ft 443 kts 312°
2026-05-07 10:19 50.95443 130.65845 35902 ft 443 kts 312°
2026-05-07 10:20 50.99634 130.58662 35902 ft 444 kts 312°
2026-05-07 10:20 51.03799 130.51501 35902 ft 444 kts 312°
2026-05-07 10:21 51.07986 130.44293 35903 ft 444 kts 312°
2026-05-07 10:21 51.12164 130.37066 35904 ft 444 kts 312°
2026-05-07 10:22 51.16345 130.29824 35902 ft 444 kts 312°
2026-05-07 10:22 51.20525 130.22573 35903 ft 444 kts 312°
2026-05-07 10:23 51.24690 130.15308 35906 ft 444 kts 312°
2026-05-07 10:23 51.28852 130.08035 35913 ft 444 kts 312°
2026-05-07 10:24 51.33008 130.00744 35914 ft 444 kts 312°
2026-05-07 10:24 51.37130 129.93394 35909 ft 444 kts 311°
2026-05-07 10:25 51.41208 129.85949 35914 ft 444 kts 311°
2026-05-07 10:25 51.45272 129.78492 35914 ft 444 kts 311°
2026-05-07 10:26 51.49340 129.71061 35910 ft 444 kts 311°
2026-05-07 10:26 51.53392 129.63668 35910 ft 444 kts 311°
2026-05-07 10:27 51.57464 129.56204 35909 ft 444 kts 311°
2026-05-07 10:27 51.61531 129.48741 35912 ft 444 kts 311°
2026-05-07 10:28 51.65586 129.41255 35911 ft 444 kts 311°
2026-05-07 10:28 51.69632 129.33751 35911 ft 444 kts 311°
2026-05-07 10:29 51.73670 129.26228 35910 ft 444 kts 311°
2026-05-07 10:29 51.77713 129.18706 35917 ft 444 kts 311°
2026-05-07 10:30 51.83770 129.07388 35916 ft 444 kts 311°
2026-05-07 10:30 51.87797 128.99828 35917 ft 444 kts 311°
2026-05-07 10:31 51.91814 128.92250 35917 ft 443 kts 311°
2026-05-07 10:31 51.95826 128.84669 35921 ft 443 kts 311°
2026-05-07 10:32 51.99834 128.77085 35925 ft 443 kts 311°
2026-05-07 10:32 52.03838 128.69482 35924 ft 442 kts 311°
2026-05-07 10:33 52.07835 128.61880 35916 ft 442 kts 311°
2026-05-07 10:33 52.11823 128.54260 35920 ft 442 kts 311°
2026-05-07 10:34 52.15807 128.46614 35921 ft 442 kts 311°
2026-05-07 10:34 52.19776 128.38958 35924 ft 442 kts 311°
2026-05-07 10:35 52.23728 128.31350 35926 ft 442 kts 311°
2026-05-07 10:35 52.27704 128.23678 35922 ft 442 kts 311°
2026-05-07 10:36 52.31664 128.15994 35928 ft 442 kts 311°
2026-05-07 10:36 52.35615 128.08297 35930 ft 442 kts 311°
2026-05-07 10:37 52.39566 128.00582 35930 ft 442 kts 311°
2026-05-07 10:37 52.43508 127.92862 35928 ft 441 kts 312°
2026-05-07 10:38 52.47416 127.85187 35941 ft 441 kts 311°
2026-05-07 10:38 52.51337 127.77446 35942 ft 440 kts 311°
2026-05-07 10:39 52.55253 127.69716 35940 ft 440 kts 311°
2026-05-07 10:39 52.59168 127.61974 35939 ft 440 kts 311°
2026-05-07 10:40 52.63073 127.54211 35924 ft 440 kts 311°
2026-05-07 10:40 52.66972 127.46426 35922 ft 440 kts 311°
2026-05-07 10:41 52.70834 127.38667 35922 ft 441 kts 311°
2026-05-07 10:41 52.74700 127.30811 35927 ft 441 kts 311°
2026-05-07 10:42 52.78556 127.22945 35924 ft 441 kts 311°
2026-05-07 10:42 52.81764 127.16399 35926 ft 441 kts 311°
2026-05-07 10:43 52.85621 127.08533 35927 ft 441 kts 311°
2026-05-07 10:43 52.89478 127.00646 35932 ft 441 kts 311°
2026-05-07 10:44 52.93328 126.92727 35927 ft 441 kts 311°
2026-05-07 10:44 52.97169 126.84802 35924 ft 441 kts 311°
2026-05-07 10:45 53.01009 126.76862 35929 ft 440 kts 311°
2026-05-07 10:45 53.04840 126.68922 35929 ft 440 kts 311°
2026-05-07 10:46 53.08670 126.60949 35934 ft 440 kts 311°
2026-05-07 10:46 53.12484 126.52976 35923 ft 440 kts 311°
2026-05-07 10:47 53.16294 126.44998 35935 ft 440 kts 311°
2026-05-07 10:47 53.20104 126.37012 35939 ft 439 kts 311°
2026-05-07 10:48 53.23884 126.29048 35941 ft 439 kts 311°
2026-05-07 10:48 53.27671 126.21029 35941 ft 439 kts 311°
2026-05-07 10:49 53.31456 126.13004 35934 ft 439 kts 311°
2026-05-07 10:49 53.35228 126.04977 35939 ft 439 kts 310°
2026-05-07 10:50 53.38993 125.96928 35942 ft 438 kts 310°
2026-05-07 10:50 53.42748 125.88875 35944 ft 438 kts 310°
2026-05-07 10:51 53.46296 125.80543 35949 ft 441 kts 301°
2026-05-07 10:51 53.48360 125.70878 35938 ft 447 kts 287°
2026-05-07 10:52 53.49844 125.60741 35949 ft 447 kts 287°
2026-05-07 10:52 53.51329 125.50610 35952 ft 447 kts 287°
2026-05-07 10:53 53.52804 125.40471 35956 ft 447 kts 287°
2026-05-07 10:53 53.54271 125.30312 35957 ft 447 kts 287°
2026-05-07 10:54 53.55731 125.20147 35958 ft 447 kts 287°
2026-05-07 10:54 53.57178 125.09985 35970 ft 447 kts 287°
2026-05-07 10:55 53.58615 124.99815 35958 ft 447 kts 286°
2026-05-07 10:55 53.60047 124.89629 35965 ft 447 kts 286°
2026-05-07 10:56 53.61471 124.79438 35969 ft 447 kts 286°
2026-05-07 10:56 53.62887 124.69250 35964 ft 447 kts 286°
2026-05-07 10:57 53.64281 124.59117 35971 ft 447 kts 286°
2026-05-07 10:57 53.65674 124.48916 35973 ft 447 kts 286°
2026-05-07 10:58 53.67057 124.38709 35971 ft 447 kts 286°
2026-05-07 10:58 53.68442 124.28488 35974 ft 447 kts 286°
2026-05-07 10:59 53.69809 124.18256 35963 ft 447 kts 286°
2026-05-07 10:59 53.71173 124.08020 35970 ft 447 kts 286°
2026-05-07 11:00 53.72527 123.97784 35976 ft 447 kts 285°
2026-05-07 11:00 53.73868 123.87545 35978 ft 447 kts 285°
2026-05-07 11:01 53.75200 123.77299 35981 ft 447 kts 285°
2026-05-07 11:01 53.76528 123.67025 35969 ft 447 kts 285°
2026-05-07 11:02 53.77842 123.56766 35971 ft 446 kts 285°
2026-05-07 11:02 53.79145 123.46503 35975 ft 446 kts 285°
2026-05-07 11:03 53.80445 123.36237 35976 ft 446 kts 285°
2026-05-07 11:03 53.81734 123.25952 35978 ft 446 kts 285°
2026-05-07 11:04 53.83013 123.15681 35977 ft 446 kts 285°
2026-05-07 11:04 53.84286 123.05395 35974 ft 446 kts 285°
2026-05-07 11:05 53.85551 122.95096 35976 ft 446 kts 285°
2026-05-07 11:05 53.86800 122.84798 35973 ft 446 kts 285°
2026-05-07 11:06 53.88041 122.74497 35973 ft 446 kts 285°
2026-05-07 11:06 53.89272 122.64194 35977 ft 446 kts 284°
2026-05-07 11:07 53.90501 122.53877 35981 ft 446 kts 284°
2026-05-07 11:07 53.91717 122.43562 35980 ft 446 kts 284°
2026-05-07 11:08 53.92918 122.33238 35983 ft 446 kts 284°
2026-05-07 11:08 53.94115 122.22909 35984 ft 446 kts 284°
2026-05-07 11:09 53.95301 122.12628 35985 ft 446 kts 284°
2026-05-07 11:09 53.96416 122.02256 35982 ft 448 kts 279°
2026-05-07 11:10 53.96117 121.91648 35985 ft 455 kts 262°
2026-05-07 11:10 53.94875 121.81105 35987 ft 455 kts 262°
2026-05-07 11:11 53.93649 121.70534 35985 ft 456 kts 262°
2026-05-07 11:11 53.92423 121.59985 35983 ft 456 kts 262°
2026-05-07 11:12 53.91176 121.49446 35982 ft 456 kts 262°
2026-05-07 11:12 53.89917 121.38912 35971 ft 456 kts 262°
2026-05-07 11:13 53.88651 121.28386 35979 ft 456 kts 262°
2026-05-07 11:13 53.87369 121.17852 35982 ft 456 kts 262°
2026-05-07 11:14 53.86088 121.07334 35984 ft 456 kts 261°
2026-05-07 11:14 53.84795 120.96824 35988 ft 456 kts 261°
2026-05-07 11:15 53.83490 120.86326 35979 ft 456 kts 261°
2026-05-07 11:15 53.82181 120.75825 35983 ft 455 kts 261°
2026-05-07 11:16 53.80863 120.65335 35967 ft 455 kts 261°
2026-05-07 11:16 53.79537 120.54865 35984 ft 455 kts 261°
2026-05-07 11:17 53.78206 120.44464 35979 ft 455 kts 261°
2026-05-07 11:17 53.76862 120.34005 35980 ft 455 kts 261°
2026-05-07 11:18 53.75504 120.23553 35974 ft 455 kts 261°
2026-05-07 11:18 53.74128 120.13038 35975 ft 455 kts 261°
2026-05-07 11:19 53.72770 120.02679 35980 ft 455 kts 261°
2026-05-07 11:19 53.71387 119.92181 35966 ft 455 kts 261°
2026-05-07 11:20 53.69991 119.81769 35972 ft 455 kts 260°
2026-05-07 11:20 53.68468 119.71401 35976 ft 457 kts 254°
2026-05-07 11:21 53.65858 119.61643 35974 ft 460 kts 247°
2026-05-07 11:21 53.63063 119.51926 35968 ft 460 kts 247°
2026-05-07 11:22 53.60271 119.42227 35985 ft 460 kts 247°
2026-05-07 11:22 53.57472 119.32540 35988 ft 460 kts 247°
2026-05-07 11:23 53.54669 119.22863 35989 ft 460 kts 247°
2026-05-07 11:23 53.51844 119.13207 35978 ft 460 kts 246°
2026-05-07 11:24 53.49470 119.05129 35974 ft 460 kts 246°
2026-05-07 11:24 53.46635 118.95495 35982 ft 460 kts 246°
2026-05-07 11:25 53.43811 118.85926 35989 ft 460 kts 246°
2026-05-07 11:25 53.40959 118.76301 35993 ft 460 kts 246°
2026-05-07 11:26 53.38085 118.66635 35994 ft 460 kts 246°
2026-05-07 11:26 53.35219 118.57048 35980 ft 460 kts 246°
2026-05-07 11:27 53.32346 118.47487 35992 ft 460 kts 246°
2026-05-07 11:27 53.29470 118.37927 35998 ft 460 kts 246°
2026-05-07 11:28 53.26587 118.28392 35992 ft 460 kts 246°
2026-05-07 11:28 53.23689 118.18862 35984 ft 460 kts 246°
2026-05-07 11:29 53.20789 118.09354 35986 ft 460 kts 246°
2026-05-07 11:29 53.17876 117.99858 36007 ft 460 kts 246°
2026-05-07 11:30 53.14966 117.90367 35995 ft 460 kts 246°
2026-05-07 11:30 53.12049 117.80890 36004 ft 460 kts 246°
2026-05-07 11:31 53.09112 117.71420 36018 ft 460 kts 245°
2026-05-07 11:31 53.06166 117.61973 36013 ft 460 kts 245°
2026-05-07 11:32 53.01758 117.47870 36007 ft 460 kts 245°
2026-05-07 11:33 52.98799 117.38456 36003 ft 460 kts 245°
2026-05-07 11:33 52.95839 117.29050 35995 ft 460 kts 245°
2026-05-07 11:34 52.92872 117.19658 36001 ft 460 kts 245°
2026-05-07 11:34 52.89892 117.10281 36000 ft 460 kts 245°
2026-05-07 11:35 52.86829 117.00979 35993 ft 460 kts 244°
2026-05-07 11:35 52.83701 116.91713 35988 ft 460 kts 244°
2026-05-07 11:36 52.80582 116.82473 35993 ft 460 kts 244°
2026-05-07 11:36 52.77480 116.73228 35989 ft 460 kts 244°
2026-05-07 11:37 52.74376 116.63979 35989 ft 460 kts 244°
2026-05-07 11:37 52.71261 116.54762 35977 ft 460 kts 244°
2026-05-07 11:38 52.68160 116.45616 35965 ft 460 kts 244°
2026-05-07 11:38 52.65021 116.36425 35971 ft 460 kts 244°
2026-05-07 11:39 52.61875 116.27261 35980 ft 460 kts 244°
2026-05-07 11:39 52.58730 116.18098 35974 ft 460 kts 244°
2026-05-07 11:40 52.55582 116.08941 35971 ft 460 kts 244°
2026-05-07 11:40 52.52425 115.99807 35783 ft 460 kts 243°
2026-05-07 11:40 52.50842 115.95246 35534 ft 460 kts 243°
2026-05-07 11:41 52.49254 115.90685 35314 ft 460 kts 243°
2026-05-07 11:41 52.47667 115.86135 35051 ft 460 kts 243°
2026-05-07 11:41 52.46077 115.81576 34809 ft 460 kts 243°
2026-05-07 11:41 52.44489 115.77028 34571 ft 460 kts 243°
2026-05-07 11:42 52.42902 115.72491 34333 ft 460 kts 243°
2026-05-07 11:42 52.41306 115.67939 33908 ft 461 kts 243°
2026-05-07 11:42 52.39696 115.63360 32770 ft 467 kts 243°
2026-05-07 11:42 52.38074 115.58747 31761 ft 470 kts 243°
2026-05-07 11:43 52.36570 115.53984 30752 ft 470 kts 250°
2026-05-07 11:43 52.35501 115.49020 29578 ft 458 kts 258°
2026-05-07 11:43 52.34802 115.43991 28925 ft 447 kts 260°
2026-05-07 11:43 52.34125 115.39079 28306 ft 440 kts 260°
2026-05-07 11:44 52.33441 115.34231 27641 ft 435 kts 260°
2026-05-07 11:44 52.32756 115.29441 26996 ft 431 kts 259°
2026-05-07 11:44 52.32076 115.24700 26357 ft 426 kts 259°
2026-05-07 11:44 52.31409 115.20052 25731 ft 422 kts 259°
2026-05-07 11:45 52.30742 115.15388 25108 ft 419 kts 259°
2026-05-07 11:45 52.30081 115.10765 24488 ft 415 kts 259°
2026-05-07 11:45 52.29425 115.06190 23862 ft 412 kts 259°
2026-05-07 11:45 52.28771 115.01652 23214 ft 409 kts 259°
2026-05-07 11:46 52.28124 114.97152 22604 ft 405 kts 259°
2026-05-07 11:46 52.27485 114.92712 22067 ft 399 kts 259°
2026-05-07 11:46 52.26852 114.88324 21529 ft 394 kts 259°
2026-05-07 11:46 52.26225 114.84010 21027 ft 389 kts 259°
2026-05-07 11:47 52.25600 114.79734 20513 ft 384 kts 258°
2026-05-07 11:47 52.24981 114.75521 20050 ft 379 kts 258°
2026-05-07 11:47 52.24371 114.71358 19581 ft 375 kts 258°
2026-05-07 11:47 52.23767 114.67240 19110 ft 371 kts 258°
2026-05-07 11:48 52.23168 114.63168 18652 ft 368 kts 258°
2026-05-07 11:48 52.22569 114.59122 18162 ft 365 kts 258°
2026-05-07 11:48 52.21972 114.55115 17653 ft 362 kts 258°
2026-05-07 11:48 52.21381 114.51151 17165 ft 358 kts 258°
2026-05-07 11:49 52.20801 114.47267 16690 ft 355 kts 258°
2026-05-07 11:49 52.20213 114.43323 16178 ft 353 kts 258°
2026-05-07 11:49 52.19634 114.39440 15683 ft 351 kts 257°
2026-05-07 11:49 52.19067 114.35636 15179 ft 350 kts 257°
2026-05-07 11:50 52.18493 114.31793 14679 ft 348 kts 257°
2026-05-07 11:50 52.17918 114.27964 14170 ft 348 kts 257°
2026-05-07 11:50 52.17341 114.24146 13641 ft 347 kts 257°
2026-05-07 11:50 52.16762 114.20336 13096 ft 345 kts 257°
2026-05-07 11:51 52.16088 114.16613 12576 ft 342 kts 249°
2026-05-07 11:51 52.15002 114.13184 12046 ft 341 kts 238°
2026-05-07 11:51 52.13605 114.10081 11503 ft 338 kts 234°
2026-05-07 11:51 52.12223 114.07072 10976 ft 325 kts 234°
2026-05-07 11:52 52.10886 114.04146 10614 ft 314 kts 235°
2026-05-07 11:52 52.09632 114.01399 10411 ft 293 kts 235°
2026-05-07 11:52 52.08438 113.98791 10040 ft 283 kts 235°
2026-05-07 11:52 52.07278 113.96259 9853 ft 273 kts 235°
2026-05-07 11:53 52.06185 113.93877 9718 ft 253 kts 235°
2026-05-07 11:53 52.05166 113.91657 9585 ft 239 kts 236°
2026-05-07 11:53 52.04184 113.89511 9448 ft 235 kts 236°
2026-05-07 11:53 52.03218 113.87405 9311 ft 228 kts 235°
2026-05-07 11:54 52.02292 113.85396 9167 ft 215 kts 235°
2026-05-07 11:54 52.01407 113.83475 9060 ft 208 kts 236°
2026-05-07 11:54 52.00572 113.81665 8877 ft 200 kts 236°
2026-05-07 11:54 51.99745 113.79874 8612 ft 195 kts 236°
2026-05-07 11:55 51.98938 113.78123 8366 ft 193 kts 236°
2026-05-07 11:55 51.98238 113.76294 8108 ft 190 kts 248°
2026-05-07 11:55 51.97838 113.74271 7857 ft 188 kts 262°
2026-05-07 11:55 51.97764 113.72181 7616 ft 184 kts 275°
2026-05-07 11:56 51.97907 113.70188 7518 ft 173 kts 280°
2026-05-07 11:56 51.98109 113.68283 7315 ft 170 kts 282°
2026-05-07 11:56 51.98327 113.66403 7074 ft 169 kts 282°
2026-05-07 11:56 51.98548 113.64556 6808 ft 162 kts 283°
2026-05-07 11:57 51.98759 113.62799 6596 ft 156 kts 283°
2026-05-07 11:57 51.98964 113.61101 6353 ft 152 kts 283°
2026-05-07 11:57 51.99170 113.59401 6110 ft 152 kts 284°
2026-05-07 11:57 51.99372 113.57725 5865 ft 151 kts 283°
2026-05-07 11:58 51.99574 113.56051 5632 ft 151 kts 284°
2026-05-07 11:58 51.99776 113.54375 5388 ft 152 kts 284°
2026-05-07 11:58 51.99977 113.52702 5163 ft 150 kts 284°
2026-05-07 11:58 52.00176 113.51046 4936 ft 150 kts 283°
2026-05-07 11:59 52.00375 113.49385 4697 ft 149 kts 284°
2026-05-07 11:59 52.00571 113.47752 4458 ft 150 kts 283°
2026-05-07 11:59 52.00774 113.46055 4221 ft 149 kts 283°
2026-05-07 11:59 52.00972 113.44405 3984 ft 149 kts 284°
2026-05-07 12:00 52.01166 113.42782 3727 ft 148 kts 284°
2026-05-07 12:00 52.01365 113.41155 3501 ft 147 kts 283°
2026-05-07 12:00 52.01556 113.39535 3263 ft 146 kts 283°
2026-05-07 12:00 52.01744 113.37902 2999 ft 148 kts 283°
2026-05-07 12:01 52.01943 113.36238 2813 ft 148 kts 283°
2026-05-07 12:01 52.02140 113.34596 2561 ft 148 kts 282°
2026-05-07 12:01 52.02333 113.32948 2348 ft 149 kts 281°
2026-05-07 12:01 52.02526 113.31326 2242 ft 137 kts 282°
2026-05-07 12:02 52.02674 113.30075 2243 ft 89 kts 281°
2026-05-07 12:02 52.02722 113.29660 2245 ft 5 kts 270°
2026-05-07 12:02 52.02696 113.29645 2245 ft 7 kts 186°
2026-05-07 12:02 52.02650 113.29635 2241 ft 9 kts 189°
2026-05-07 12:03 52.02587 113.29618 2238 ft 10 kts 189°
2026-05-07 12:03 52.02528 113.29607 2237 ft 8 kts 168°
2026-05-07 12:03 52.02500 113.29670 2237 ft 9 kts 104°
2026-05-07 12:03 52.02486 113.29800 2237 ft 12 kts 101°
2026-05-07 12:04 52.02471 113.29923 2237 ft 10 kts 101°
2026-05-07 12:04 52.02459 113.30027 2237 ft 9 kts 101°
2026-05-07 12:04 52.02448 113.30122 2237 ft 10 kts 101°
2026-05-07 12:04 52.02432 113.30261 2237 ft 15 kts 100°
2026-05-07 12:05 52.02412 113.30437 2237 ft 15 kts 100°
2026-05-07 12:05 52.02392 113.30606 2237 ft 15 kts 101°
2026-05-07 12:05 52.02374 113.30758 2237 ft 13 kts 101°
2026-05-07 12:05 52.02359 113.30884 2237 ft 9 kts 101°
2026-05-07 12:06 52.02326 113.30934 2237 ft 6 kts 182°
2026-05-07 12:06 52.02288 113.30917 2237 ft 5 kts 195°
2026-05-07 12:06 52.02254 113.30901 2237 ft 6 kts 198°
2026-05-07 12:06 52.02219 113.30884 2237 ft 4 kts 188°
2026-05-07 12:07 52.02201 113.30912 2237 ft 5 kts 120°
2026-05-07 12:07 52.02191 113.30965 2237 ft 4 kts 105°
2026-05-07 12:07 52.02183 113.31006 2237 ft 3 kts 106°
2026-05-07 12:07 52.02172 113.31022 2237 ft 3 kts 162°
2026-05-07 12:08 52.02135 113.31006 2237 ft 7 kts 198°
2026-05-07 12:08 52.02099 113.30976 2237 ft 4 kts 248°
2026-05-07 12:08 52.02105 113.30940 2237 ft 3 kts 288°
2026-05-07 12:08 52.02110 113.30914 2237 ft 4 kts 288°
2026-05-07 12:09 52.02113 113.30899 2237 ft 0 kts 288°